Location: Enikep?du
(16.5133°N, 80.7066°E)
Time: 11:39:49
(UTC+00:00)

USA 238 - Pass Details

Date: 15 May 2026
Orbit: 883 x 1328 km, 63.4° (Epoch: 10 January)

Event Time Altitude Azimuth Distance (km) Brightness Sun altitude
Exits shadow 22:48:22 17° 197° (SSW) 2,079 4.8 -18.0°
Maximum altitude 22:52:57 75° 114° (ESE) 923 3.4 -17.0°
Drops below altitude 10° 22:58:59 10° 29° (NNE) 2,637 6.6 -15.7°
Sets 23:01:37 0° 28° (NNE) 3,631 7.4 -15.1°
